Home   Weather   Krems   Past weeks

Flag for Austria Past Weather in Krems, Lower Austria, Austria — Yesterday and Last 2 Weeks

Now
26 °F

Chilly.


Feels Like: 26 °F
Forecast: 29 / 47 °F
Wind: 2 mph from Southwest

Location: Retz

Current Time: Dec 9, 2016 at 1:10:52 am

Latest Report: Dec 9, 2016 at 12:00 am


Visibility: N/A

Pressure: 30.47 "Hg

Humidity: 99%

Dew Point: 26 °F

Location of KremsLocation

Past Weather in Krems — Graph

°F

Krems Temperature Yesterday

Maximum temperature yesterday: 29 °F (at 3:00 pm)
Minimum temperature yesterday: 25 °F (at 12:00 am)
Average temperature yesterday: 28 °F

High & Low Weather Summary for the Past Weeks

 TemperatureHumidityPressure
High45 °F (Nov 26, 3:00 pm)100% (Nov 24, 6:00 am)30.70 "Hg (Nov 24, 6:00 am)
Low23 °F (Dec 6, 5:00 am)44% (Nov 30, 8:00 pm)29.76 "Hg (Dec 2, 7:00 am)
Average34 °F85%30.29 "Hg
* Reported Nov 23 11:00 pm — Dec 8 11:00 pm, Krems, Weather by CustomWeather, © 2016

Note: Actual official high and low records may vary slightly from our data, if they occured in-between our weather recording intervals... More about our weather records

Advertising

Krems Weather History for the Previous 24 Hours

Scroll right to see more
 ConditionsComfort  
Time TempWeatherWind HumidityBarometerVisibility
11:00 pm
Thu, Dec 8
27 °FChilly.2 mph98%30.49 "HgN/A
10:00 pm27 °FChilly.2 mph99%30.50 "HgN/A
9:00 pm27 °FChilly.2 mph99%30.50 "HgN/A
8:00 pm28 °FChilly.No wind99%30.50 "HgN/A
7:00 pm28 °FFog.No wind99%30.51 "Hg0 mi
6:00 pm28 °FChilly.3 mph99%30.51 "HgN/A
5:00 pm29 °FChilly.1 mph99%30.51 "HgN/A
4:00 pm29 °FChilly.3 mph99%30.51 "HgN/A
3:00 pm29 °FChilly.No wind98%30.53 "HgN/A
2:00 pm29 °FChilly.1 mph98%30.55 "HgN/A
1:00 pm29 °FFog.No wind98%30.57 "Hg1 mi
12:00 pm29 °FChilly.1 mph98%30.58 "HgN/A
11:00 am29 °FChilly.1 mph99%30.60 "HgN/A
10:00 am29 °FChilly.2 mph98%30.61 "HgN/A
9:00 am28 °FChilly.1 mph99%30.61 "HgN/A
8:00 am28 °FChilly.3 mph100%30.62 "HgN/A
7:00 am28 °FFog.No wind99%30.63 "Hg0 mi
6:00 am28 °FChilly.1 mph99%30.63 "HgN/A
5:00 am27 °FChilly.2 mph99%30.62 "HgN/A
4:00 am27 °FChilly.1 mph99%30.63 "HgN/A
1:00 am26 °FChilly.1 mph99%30.64 "HgN/A
Weather by CustomWeather, © 2016

See weather overviewHow to use our weather pages